Weather History for Duesseldorf, Germany

Change the Weather History Date:

Thursday, February 7, 2013

  Actual Average Record
Temperature  
Mean Temperature 36 °F -  
Max Temperature 40 °F 45 °F 59 °F (2011)
Min Temperature 31 °F 34 °F 8 °F (2012)
Degree Days  
Heating Degree Days 30    
Moisture  
Dew Point 32 °F    
Average Humidity 88    
Maximum Humidity 96    
Minimum Humidity 68    
Precipitation  
Precipitation 0.01 in - - ()
Sea Level Pressure  
Sea Level Pressure 29.82 in    
Wind  
Wind Speed 8 mph ()    
Max Wind Speed 12 mph    
Max Gust Speed -    
Visibility 7.4 miles    
Events Rain , Snow    
Averages and records for this station are not official NWS values.
T = Trace of Precipitation, MM = Missing Value Source: Averaged Metar Reports

Daily Weather History Graph

Daily Weather History Graph

Search for Another Location

Airport:

Trip Planner

Search our weather history database for the weather conditions in past years. The results will help you decide how hot, cold, wet, or windy it might be!

Date:

Astronomy

Feb. 07, 2013 Rise Set
Actual Time 8:00 AM CET 5:34 PM CET
Civil Twilight 7:25 AM CET 6:09 PM CET
Nautical Twilight 6:46 AM CET 6:48 PM CET
Astronomical Twilight 6:07 AM CET 7:27 PM CET
Moon 5:38 AM CET (2/7) 2:29 PM CET (2/7)
Length of Visible Light 10h 44m
Length of Day
9h 33m
Waning Crescent, 11% of the Moon is Illuminated
Feb 7
Waning Crescent
Feb 10
New
Feb 17
First Quarter
Feb 25
Full
Mar 4
Last Quarter

Hourly Weather History & Observations

Time (CET) Temp. Windchill Dew Point Humidity Pressure Visibility Wind Dir Wind Speed Gust Speed Precip Events Conditions
12:00 AM 35 °F - 33 °F 92% 29.73 in 12 mi WNW 6.7 mph - - Snow Light Snow Showers
12:20 AM 33.8 °F 27.7 °F 32.0 °F 93% 29.71 in 6.2 mi WNW 6.9 mph - N/A   Scattered Clouds
12:50 AM 33.8 °F 28.6 °F 32.0 °F 93% 29.74 in - West 5.8 mph - N/A   Clear
1:00 AM 33 °F - 32 °F 96% 29.75 in 14 mi West 6.7 mph - -   Partly Cloudy
1:20 AM 33.8 °F 27.0 °F 32.0 °F 93% 29.74 in 6.2 mi WNW 8.1 mph - N/A   Scattered Clouds
1:50 AM 33.8 °F 27.0 °F 32.0 °F 93% 29.74 in 6.2 mi WNW 8.1 mph - N/A   Mostly Cloudy
2:00 AM 34 °F - 33 °F 95% 29.76 in 14 mi WNW 6.7 mph - -   Mostly Cloudy
2:20 AM 33.8 °F 27.0 °F 32.0 °F 93% 29.74 in 6.2 mi WNW 8.1 mph - N/A   Scattered Clouds
2:50 AM 33.8 °F 27.7 °F 32.0 °F 93% 29.74 in 6.2 mi WNW 6.9 mph - N/A   Partly Cloudy
3:00 AM 34 °F - 32 °F 91% 29.76 in 14 mi West 6.7 mph - -   Scattered Clouds
3:20 AM 33.8 °F 27.0 °F 30.2 °F 87% 29.74 in 6.2 mi West 8.1 mph - N/A   Partly Cloudy
3:50 AM 33.8 °F 27.7 °F 30.2 °F 87% 29.74 in 6.2 mi West 6.9 mph - N/A   Scattered Clouds
4:20 AM 33.8 °F 25.8 °F 32.0 °F 93% 29.77 in 6.2 mi West 10.4 mph - N/A   Mostly Cloudy
4:50 AM 33.8 °F 27.0 °F 32.0 °F 93% 29.77 in 6.2 mi West 8.1 mph - N/A   Mostly Cloudy
5:00 AM 34 °F - 32 °F 90% 29.78 in 16 mi West 6.7 mph - -   Partly Cloudy
5:20 AM 33.8 °F 27.7 °F 32.0 °F 93% 29.77 in 6.2 mi West 6.9 mph - N/A Rain Light Small Hail Showers
5:50 AM 33.8 °F 25.3 °F 32.0 °F 93% 29.77 in 3.7 mi West 11.5 mph - N/A Rain , Snow Light Snow Showers
6:00 AM 34 °F - 33 °F 93% 29.79 in 4 mi West 11.2 mph - - Snow Light Snow Showers
6:20 AM 33.8 °F 25.3 °F 32.0 °F 93% 29.77 in 6.2 mi WNW 11.5 mph - N/A   Mostly Cloudy
6:50 AM 33.8 °F 25.3 °F 32.0 °F 93% 29.77 in 6.2 mi West 11.5 mph - N/A   Scattered Clouds
7:00 AM 34 °F - 33 °F 94% 29.79 in 12 mi West 11.2 mph - - Snow Light Snow Showers
7:20 AM 33.8 °F 26.4 °F 32.0 °F 93% 29.77 in 6.2 mi West 9.2 mph - N/A   Mostly Cloudy
7:50 AM 35.6 °F 27.5 °F 32.0 °F 87% 29.80 in 6.2 mi West 11.5 mph - N/A   Mostly Cloudy
8:00 AM 35 °F - 33 °F 91% 29.81 in 9 mi West 11.2 mph - -   Mostly Cloudy
8:20 AM 35.6 °F 27.5 °F 32.0 °F 87% 29.80 in 6.2 mi WNW 11.5 mph - N/A   Mostly Cloudy
8:50 AM 35.6 °F 28.0 °F 32.0 °F 87% 29.83 in 6.2 mi West 10.4 mph - N/A   Mostly Cloudy
9:00 AM 35 °F - 33 °F 89% 29.83 in 9 mi West 11.2 mph - -   Mostly Cloudy
9:20 AM 35.6 °F 28.0 °F 32.0 °F 87% 29.83 in 6.2 mi WNW 10.4 mph - N/A   Mostly Cloudy
9:50 AM 35.6 °F 28.6 °F 32.0 °F 87% 29.83 in 6.2 mi WNW 9.2 mph - N/A   Mostly Cloudy
10:20 AM 35.6 °F 29.2 °F 32.0 °F 87% 29.83 in 6.2 mi WNW 8.1 mph - N/A   Mostly Cloudy
10:50 AM 35.6 °F 28.6 °F 32.0 °F 87% 29.83 in 6.2 mi WNW 9.2 mph - N/A   Mostly Cloudy
11:00 AM 36 °F - 33 °F 87% 29.86 in 12 mi WNW 8.9 mph - -   Mostly Cloudy
11:20 AM 35.6 °F 29.2 °F 32.0 °F 87% 29.86 in 6.2 mi WNW 8.1 mph - N/A   Mostly Cloudy
11:50 AM 37.4 °F 31.4 °F 32.0 °F 81% 29.86 in 6.2 mi WNW 8.1 mph - N/A   Mostly Cloudy
12:00 PM 37 °F - 33 °F 81% 29.88 in 12 mi WNW 8.9 mph - -   Mostly Cloudy
12:20 PM 37.4 °F 31.4 °F 32.0 °F 81% 29.86 in 6.2 mi WNW 8.1 mph - N/A   Scattered Clouds
12:50 PM 37.4 °F 32.1 °F 32.0 °F 81% 29.86 in 6.2 mi WNW 6.9 mph - N/A   Scattered Clouds
1:00 PM 38 °F - 33 °F 77% 29.87 in 25 mi WNW 6.7 mph - -   Mostly Cloudy
1:20 PM 39.2 °F 34.2 °F 32.0 °F 75% 29.86 in 6.2 mi WNW 6.9 mph - N/A   Scattered Clouds
1:50 PM 39.2 °F 32.5 °F 32.0 °F 75% 29.86 in 6.2 mi West 10.4 mph - N/A   Scattered Clouds
2:00 PM 39 °F - 32 °F 68% 29.86 in 25 mi West 8.9 mph - -   Mostly Cloudy
2:20 PM 41.0 °F 35.2 °F 32.0 °F 70% 29.83 in 6.2 mi West 9.2 mph - N/A   Scattered Clouds
2:50 PM 39.2 °F 32.0 °F 32.0 °F 75% 29.83 in 6.2 mi West 11.5 mph - N/A   Scattered Clouds
3:20 PM 39.2 °F 32.5 °F 32.0 °F 75% 29.83 in 6.2 mi West 10.4 mph - N/A   Scattered Clouds
3:50 PM 37.4 °F 29.8 °F 32.0 °F 81% 29.86 in 6.2 mi West 11.5 mph - N/A   Partly Cloudy
4:20 PM 37.4 °F 30.3 °F 32.0 °F 81% 29.86 in 6.2 mi West 10.4 mph - N/A   Partly Cloudy
4:50 PM 35.6 °F 29.9 °F 32.0 °F 87% 29.86 in 6.2 mi West 6.9 mph - N/A   Partly Cloudy
5:00 PM 36 °F - 33 °F 84% 29.87 in 28 mi West 6.7 mph - -   Partly Cloudy
5:20 PM 35.6 °F 29.9 °F 32.0 °F 87% 29.86 in 6.2 mi West 6.9 mph - N/A   Partly Cloudy
5:50 PM 33.8 °F 29.6 °F 32.0 °F 93% 29.86 in 6.2 mi WSW 4.6 mph - N/A   Scattered Clouds
6:20 PM 35.6 °F 31.7 °F 32.0 °F 87% 29.86 in 6.2 mi West 4.6 mph - N/A   Mostly Cloudy
6:50 PM 35.6 °F 30.7 °F 32.0 °F 87% 29.86 in 6.2 mi West 5.8 mph - N/A   Mostly Cloudy
7:00 PM 35 °F - 33 °F 92% 29.89 in 22 mi West 6.7 mph - -   Mostly Cloudy
7:20 PM 35.6 °F 30.7 °F 32.0 °F 87% 29.86 in 6.2 mi WSW 5.8 mph - N/A   Mostly Cloudy
7:50 PM 35.6 °F 29.9 °F 32.0 °F 87% 29.86 in 6.2 mi West 6.9 mph - N/A   Mostly Cloudy
8:00 PM 35 °F - 33 °F 92% 29.89 in 19 mi West 6.7 mph - -   Mostly Cloudy
8:20 PM 35.6 °F 29.9 °F 32.0 °F 87% 29.86 in 6.2 mi West 6.9 mph - N/A   Mostly Cloudy
8:50 PM 35.6 °F 29.2 °F 32.0 °F 87% 29.86 in 6.2 mi West 8.1 mph - N/A   Mostly Cloudy
9:00 PM 35 °F - 33 °F 91% 29.89 in 11 mi West 6.7 mph - -   Mostly Cloudy
9:20 PM 33.8 °F 27.0 °F 32.0 °F 93% 29.89 in 5.6 mi West 8.1 mph - N/A Rain , Snow Light Snow Showers
9:50 PM 33.8 °F 27.0 °F 32.0 °F 93% 29.89 in 6.2 mi West 8.1 mph - N/A   Mostly Cloudy
10:20 PM 33.8 °F 27.0 °F 32.0 °F 93% 29.86 in 5.6 mi West 8.1 mph - N/A   Mostly Cloudy
10:50 PM 33.8 °F 27.0 °F 32.0 °F 93% 29.89 in 5.6 mi West 8.1 mph - N/A   Mostly Cloudy
11:00 PM 34 °F - 33 °F 96% 29.89 in 6 mi West 6.7 mph - -   Mostly Cloudy
11:20 PM 33.8 °F 27.7 °F 32.0 °F 93% 29.86 in 5.6 mi WSW 6.9 mph - N/A   Mostly Cloudy
11:50 PM 33.8 °F 27.0 °F 32.0 °F 93% 29.89 in 6.2 mi West 8.1 mph - N/A   Overcast